GEFSSE_500_meanwind_012.txt.gz
Wind_Speed
14 15 14 14 13 13 12 12 13 14 14 13 13 13 12 11 11 11 13 14 14 15 14 13 12 11 10 10 10 9 9 9 9 9 10 11 11 11 9 8 6 4 1
13 13 13 13 13 12 11 11 12 13 13 12 12 12 11 10 10 10 11 12 13 13 13 13 12 11 11 10 10 10 10 10 10 10 10 11 12 12 11 9 8 7 4
13 12 12 11 10 10 8 7 8 8 9 9 9 10 9 9 10 10 10 11 11 12 12 12 12 11 11 10 10 11 11 10 10 10 10 11 12 12 12 11 9 8 7
13 12 12 10 9 8 6 5 3 4 4 5 6 7 7 7 8 9 10 11 11 11 11 12 12 11 10 10 10 11 11 11 11 11 11 12 12 12 12 12 11 10 8
12 11 10 9 9 8 7 5 4 3 3 3 3 4 5 5 6 7 9 10 10 11 11 11 12 12 11 11 11 11 11 11 11 12 12 12 12 12 12 12 12 11 10
8 9 8 7 7 7 7 6 5 4 3 3 2 2 2 2 3 4 6 8 9 10 10 11 11 12 12 12 12 12 13 12 12 12 12 12 12 12 12 12 12 11 10
4 5 4 4 4 4 4 4 4 4 3 3 2 2 2 3 3 5 6 8 8 8 9 10 10 10 11 12 13 12 13 13 12 12 12 11 11 11 11 12 12 12 10
6 4 4 3 2 1 0 1 2 2 3 4 4 4 5 6 6 8 9 10 10 9 9 9 10 10 10 11 12 12 12 12 12 12 12 11 11 12 12 12 13 13 12
8 8 7 5 5 5 5 4 4 4 5 6 7 7 8 8 9 10 11 12 12 12 11 9 9 10 11 11 12 12 12 12 12 12 12 11 12 13 13 13 13 14 14
11 10 9 7 7 7 7 6 6 7 7 8 8 9 9 10 11 12 13 14 13 13 12 11 9 10 11 12 12 13 13 13 12 12 12 13 14 14 15 15 15 15 16
13 12 11 10 9 10 9 8 9 10 11 12 11 9 9 10 12 14 15 15 15 14 13 12 11 11 12 13 13 14 14 14 13 12 13 13 15 15 16 17 17 18 18
15 14 13 12 12 12 12 13 13 14 16 16 14 12 13 14 16 18 18 16 15 15 14 13 12 13 14 14 14 14 15 14 14 13 13 14 15 16 17 18 18 19 19
16 17 16 15 15 17 18 18 19 20 21 21 19 19 19 20 22 22 21 19 17 16 15 15 15 15 15 14 13 15 15 15 15 14 15 16 17 18 18 19 19 19 20
17 18 19 19 21 22 23 24 24 25 24 22 21 21 23 26 27 27 25 23 20 19 17 17 15 15 14 13 13 14 15 16 16 16 17 18 20 21 21 21 20 20 20
17 17 19 21 23 24 25 26 26 25 23 21 21 23 26 28 30 30 28 26 24 22 20 19 17 16 14 14 14 14 14 15 17 17 17 19 20 22 22 21 21 22 22
20 19 20 21 23 25 26 26 26 25 24 22 23 25 28 31 32 33 30 29 28 27 25 23 21 18 17 16 16 15 15 15 16 17 17 19 21 21 21 21 21 22 22
24 24 25 25 26 27 28 29 29 29 28 27 26 27 30 33 34 35 35 32 30 29 29 27 24 21 19 18 18 17 16 16 16 17 18 19 20 20 20 21 22 22 21
29 29 30 31 30 30 31 32 32 33 33 32 31 31 32 35 36 36 37 36 35 33 32 31 28 25 23 21 20 19 18 18 18 19 19 19 19 18 18 21 22 23 22
34 34 35 35 35 34 34 35 36 37 37 38 36 35 35 37 38 38 38 38 37 36 35 33 31 29 27 24 23 21 20 20 20 20 21 20 20 20 20 21 23 24 24
37 38 38 39 38 38 38 38 39 39 40 42 41 39 39 38 38 38 38 39 39 38 37 36 33 31 29 27 25 23 22 22 21 22 22 21 20 22 23 24 24 26 26
40 41 42 42 42 41 42 42 42 42 43 44 44 43 43 41 39 38 38 39 40 39 36 35 35 33 31 28 27 25 24 24 24 24 23 22 21 21 23 25 26 27 27
43 43 44 44 44 44 45 45 45 45 45 45 45 46 46 44 41 39 39 40 40 39 37 35 35 35 33 31 29 27 27 28 26 26 24 22 22 23 24 25 26 27 27
46 46 46 46 46 46 46 46 45 45 45 46 47 48 48 46 43 42 41 42 41 39 37 36 36 36 36 33 31 30 29 30 28 26 24 23 23 24 25 25 26 26 27
48 48 48 48 47 46 45 45 45 46 47 48 49 50 49 48 46 45 45 44 42 40 38 36 36 37 38 36 33 31 30 30 29 27 25 24 24 24 25 26 28 28 29
47 48 47 47 46 46 46 46 47 48 49 50 51 51 51 50 49 47 46 45 43 41 39 39 38 38 39 38 34 30 29 30 30 28 26 26 25 24 24 25 28 30 31
45 45 45 45 45 46 46 47 48 50 51 52 52 52 51 51 49 47 46 45 43 42 41 41 40 39 39 39 35 31 29 29 29 28 26 27 28 28 27 26 27 29 29

GEFSSE_500_meanwind_018.txt.gz
Wind_Speed
17 18 18 17 17 17 17 15 14 14 14 14 14 14 15 15 16 16 17 17 18 18 18 17 16 16 15 14 14 13 12 11 11 11 11 11 11 10 8 7 5 3 2
16 16 16 15 15 15 15 13 12 12 12 12 12 12 13 14 15 15 15 16 17 17 17 17 16 15 14 14 13 13 12 12 11 11 11 11 11 10 9 8 6 5 2
14 14 13 13 12 12 11 10 9 8 8 9 9 10 10 11 12 13 13 14 15 16 16 16 16 15 14 13 12 12 11 11 10 10 10 10 10 10 10 9 6 5 3
12 11 11 11 10 9 8 7 6 5 5 5 6 7 7 8 9 10 12 12 13 14 14 15 14 14 14 13 12 11 11 10 9 9 8 8 8 8 9 8 7 5 3
9 9 8 8 7 7 6 5 4 4 4 4 5 5 5 6 7 9 10 12 12 13 14 13 13 13 13 13 13 12 11 10 9 8 8 8 7 7 7 8 7 5 4
6 6 5 5 4 4 4 4 4 4 4 4 5 5 5 6 7 9 11 12 13 13 14 14 13 13 12 12 12 12 11 10 9 8 8 9 8 6 7 7 7 6 5
1 2 2 1 1 2 2 3 4 5 5 5 6 6 7 8 9 11 12 14 15 15 15 15 14 13 13 12 12 12 12 11 10 9 8 9 9 8 7 7 7 7 6
4 3 3 3 2 2 2 3 4 5 6 7 8 8 9 10 10 12 13 15 16 16 16 16 15 14 13 13 12 12 12 12 11 10 9 10 10 9 8 8 8 8 8
7 7 7 6 5 4 4 4 4 5 7 8 9 9 9 9 10 12 14 15 16 16 15 16 15 14 13 13 13 12 12 11 11 10 10 11 10 10 9 9 10 10 10
10 10 9 9 8 7 6 5 4 4 6 8 9 9 8 8 9 11 13 14 15 16 15 15 15 14 14 14 14 14 13 12 11 10 11 11 10 11 10 10 11 11 11
11 11 11 11 11 9 7 7 6 5 7 8 9 9 8 8 9 11 12 13 14 15 15 15 14 14 14 15 15 15 14 13 12 11 11 11 12 13 12 12 12 12 12
13 12 12 12 12 11 10 10 9 10 11 11 11 10 9 9 10 12 14 15 15 15 16 16 15 14 15 15 15 15 15 14 13 13 13 13 14 15 15 15 14 13 12
13 13 13 13 13 13 13 14 14 14 15 14 13 11 10 10 12 15 17 17 17 17 17 17 17 16 16 16 15 15 16 15 14 14 15 15 15 16 17 17 15 13 12
14 13 14 15 15 16 17 17 17 17 17 15 13 11 11 11 13 16 19 19 18 18 18 17 18 19 18 17 17 17 17 17 16 16 16 16 16 17 18 17 15 13 11
16 16 16 16 16 16 16 16 17 17 16 15 15 14 14 14 14 17 19 21 21 21 20 20 20 20 20 19 19 19 19 18 17 17 17 17 17 18 18 17 15 13 12
20 20 20 19 18 17 17 17 17 18 18 17 18 18 18 18 18 19 20 21 21 21 21 21 21 21 22 22 21 21 21 20 19 19 19 19 19 19 19 18 15 14 13
24 24 24 23 22 21 21 21 21 21 21 21 21 21 21 21 21 21 22 22 22 22 22 22 22 22 22 23 24 24 24 23 22 21 21 21 20 20 19 19 17 16 15
29 28 28 27 26 26 25 25 25 26 26 27 26 25 25 25 26 26 26 25 26 26 25 25 25 25 24 24 25 25 26 26 26 24 24 23 23 22 21 20 19 18 18
34 32 31 30 30 29 29 29 28 29 30 31 31 31 30 30 30 31 30 29 29 30 30 29 28 28 27 26 25 26 27 28 29 28 27 26 25 24 23 22 21 21 20
35 35 33 32 32 32 32 31 31 32 33 34 35 35 35 34 34 35 34 34 33 33 33 33 32 31 30 29 27 27 27 29 30 31 31 30 29 27 25 24 23 22 21
35 35 36 36 35 35 34 34 34 35 36 37 39 39 39 38 38 38 38 38 37 36 36 36 36 35 33 32 30 28 27 28 30 32 32 32 31 30 27 25 25 23 23
37 37 37 39 37 36 37 36 36 37 39 40 41 41 41 41 40 40 41 41 42 41 40 39 40 39 38 35 33 30 28 28 29 32 33 33 32 29 27 26 26 26 25
41 39 41 42 40 40 40 39 40 40 41 42 42 42 42 42 41 41 42 43 44 45 44 43 43 42 41 39 36 34 31 30 30 31 33 33 33 31 28 27 26 26 25
41 40 40 41 42 41 41 41 42 42 42 42 42 42 41 42 42 42 43 44 45 46 47 47 46 45 44 41 39 36 34 32 31 31 33 34 33 31 31 29 28 28 26
38 39 39 40 40 40 41 42 42 42 41 40 39 39 40 41 42 44 45 46 46 47 48 49 49 47 45 43 40 38 36 34 34 33 33 34 34 32 31 30 29 28 27
39 38 37 38 38 38 38 39 39 39 38 38 38 39 41 43 44 46 47 47 47 47 48 49 49 48 45 43 41 39 38 37 36 35 34 34 34 33 32 31 31 29 28

GEFSSE_500_meanwind_024.txt.gz
Wind_Speed
18 18 17 18 18 18 18 18 17 16 16 15 15 15 16 17 18 19 20 20 20 20 19 18 17 16 15 14 13 12 12 11 11 10 10 9 8 7 5 4 3 3 3
16 16 15 14 14 14 14 14 14 13 13 12 12 13 13 15 16 17 17 18 18 18 18 17 17 16 15 13 12 11 11 10 10 9 9 9 8 8 7 5 3 2 1
12 12 11 11 10 10 10 10 10 10 10 10 10 10 11 12 13 14 15 16 16 16 16 16 15 15 14 13 12 10 10 9 9 8 8 7 7 7 7 6 4 3 2
10 8 8 8 8 8 8 8 9 9 9 8 8 8 8 9 10 11 13 14 14 15 15 15 14 13 13 12 11 10 9 8 8 8 7 7 6 6 7 6 5 4 3
7 6 6 7 7 7 7 7 8 8 8 7 7 7 7 7 9 10 11 12 13 14 14 14 13 13 11 10 9 9 8 8 8 8 8 7 6 6 6 6 5 4 3
5 4 5 6 6 5 5 6 6 6 6 6 6 6 6 7 7 8 10 11 13 14 14 13 13 12 11 10 9 8 7 7 8 8 8 7 6 6 6 5 4 4 3
3 3 3 4 3 3 3 3 4 4 4 5 5 5 6 6 7 8 9 10 12 14 14 14 13 11 10 10 9 8 7 7 7 8 8 7 6 6 7 6 5 5 5
4 4 4 3 3 3 3 2 2 2 3 3 4 5 5 5 6 7 8 9 11 13 14 14 14 12 10 9 9 8 7 7 8 8 8 7 7 7 8 8 8 7 8
6 6 6 5 6 6 5 4 3 2 1 2 3 4 5 5 5 6 7 9 10 12 14 14 15 14 12 10 9 9 9 9 9 9 9 8 8 8 9 9 10 9 9
8 8 7 7 8 8 7 6 6 5 4 4 5 6 7 7 7 7 8 9 10 12 13 14 15 15 14 12 12 11 11 11 10 10 10 9 9 9 10 10 11 11 11
10 10 10 9 9 10 10 9 8 8 8 8 8 9 10 10 9 9 9 9 10 11 12 13 14 15 14 14 14 13 13 12 12 12 12 11 11 11 11 12 12 12 12
11 12 11 11 11 11 12 11 11 11 11 12 13 13 13 12 11 11 11 10 10 11 12 13 13 14 15 15 15 15 14 14 14 14 14 13 13 13 13 13 13 13 13
13 13 12 12 13 13 13 14 14 15 15 16 16 16 14 13 12 12 12 11 11 11 12 12 13 14 15 16 16 16 16 16 16 16 16 15 15 15 14 14 15 14 13
14 14 14 14 14 15 15 16 17 17 17 17 17 15 14 14 13 13 13 12 12 13 13 13 14 14 15 16 17 17 18 18 18 19 19 18 17 16 16 16 16 15 14
17 17 17 17 17 17 18 18 18 18 18 17 16 15 15 15 15 14 14 14 14 14 14 15 15 15 16 18 18 18 19 19 20 21 22 22 20 19 18 18 18 17 17
21 21 20 20 20 21 22 22 22 22 21 20 19 19 18 18 17 17 17 16 16 16 17 17 17 17 18 20 21 21 21 21 21 22 23 24 23 22 21 20 20 19 19
25 24 24 25 25 26 26 27 27 26 26 25 24 23 22 21 20 19 19 18 18 18 19 20 20 20 21 22 23 23 24 24 24 24 24 25 26 25 24 23 22 22 22
28 27 28 29 29 31 31 32 31 31 30 29 28 27 25 24 22 21 21 21 20 20 21 22 23 23 23 24 25 26 26 26 26 26 26 27 28 28 28 27 26 25 24
30 30 31 31 33 34 35 35 35 35 34 33 32 31 28 27 25 24 23 23 23 23 24 25 26 26 26 27 28 28 29 28 29 28 28 28 29 30 30 30 29 28 27
33 33 33 33 35 37 37 37 37 39 39 38 37 35 33 29 28 27 26 26 26 26 27 28 29 30 31 32 32 31 31 32 31 31 31 30 30 30 31 32 31 30 29
34 33 33 35 37 37 37 38 39 42 43 43 42 39 36 33 31 30 29 29 29 30 30 32 34 34 34 37 37 35 34 35 34 34 33 33 32 31 31 32 32 32 31
35 34 35 36 37 38 38 38 41 43 45 45 44 43 40 37 35 32 31 31 32 32 33 35 37 37 37 40 41 41 37 36 37 37 36 35 34 33 32 32 32 32 31
34 34 35 36 38 40 41 42 42 43 44 44 43 42 39 36 33 31 31 31 32 32 34 36 38 40 41 41 43 44 43 38 38 38 38 37 36 35 34 33 32 32 32
35 36 37 38 39 41 42 43 43 42 42 41 38 37 36 34 32 30 30 30 31 33 35 37 40 42 43 43 44 44 45 43 40 38 38 38 37 36 35 34 32 33 33
42 42 42 42 42 43 43 43 42 40 39 38 36 35 34 32 30 30 31 31 33 35 37 39 41 43 44 45 44 44 44 43 42 39 36 37 37 36 36 35 34 34 34
49 49 48 47 46 45 45 43 40 39 37 35 33 33 32 32 31 32 33 35 36 38 39 41 42 43 43 43 43 42 42 41 39 38 36 35 36 36 37 37 35 35 35

GEFSSE_500_meanwind_030.txt.gz
Wind_Speed
16 16 15 13 11 9 8 8 9 9 10 10 11 12 13 14 15 15 15 15 14 13 12 11 10 9 8 8 7 7 7 7 7 7 7 6 5 4 2 1 1 2 1
13 13 12 10 8 6 4 4 5 6 6 7 8 9 10 11 12 12 13 13 12 11 10 9 9 8 7 6 6 6 6 6 5 5 5 5 5 4 2 0 1 2 2
10 9 8 7 5 3 2 2 2 3 4 4 5 6 7 8 9 10 11 11 11 10 9 8 7 6 5 5 5 5 5 5 5 4 4 4 4 4 3 1 0 1 2
7 6 5 4 3 1 1 1 1 1 2 3 4 4 5 6 7 8 9 9 10 9 8 7 6 4 4 3 4 4 5 5 5 4 3 3 3 3 2 2 1 1 1
5 4 4 3 1 1 2 3 3 2 2 2 3 4 4 5 5 6 7 8 9 9 8 7 6 4 3 3 3 4 4 5 5 4 2 2 2 2 3 3 2 2 2
4 3 2 1 1 2 3 4 4 4 3 3 3 3 3 4 4 5 6 7 9 9 9 7 6 5 4 3 3 4 4 5 5 4 3 2 2 3 3 4 3 3 3
4 3 1 2 3 4 5 5 6 5 5 4 3 3 3 3 4 4 5 6 8 9 10 8 7 6 5 4 4 5 5 6 6 5 4 3 3 4 4 5 4 2 3
6 5 4 4 5 6 7 7 7 7 6 5 4 4 4 5 5 6 6 6 8 9 10 9 9 8 6 5 5 6 6 7 7 7 6 6 5 6 6 6 6 4 4
8 7 7 7 8 9 9 9 8 8 7 6 6 6 6 6 7 8 7 7 8 8 9 10 10 9 8 7 6 6 7 8 8 8 8 8 8 8 8 7 7 7 6
10 10 9 9 9 10 10 10 10 10 9 9 9 9 9 9 10 10 9 9 8 8 8 9 10 10 10 9 8 8 7 8 9 10 10 10 10 10 10 10 9 9 8
11 11 11 11 11 11 11 11 12 12 12 12 12 12 12 13 13 13 12 11 10 9 8 8 9 10 10 10 10 9 9 9 10 11 12 12 12 12 12 12 11 11 10
11 12 12 12 12 13 13 13 13 13 13 14 15 15 16 16 15 15 15 14 13 12 10 10 10 10 10 10 10 10 10 10 11 12 13 14 14 14 14 13 13 13 12
12 13 14 14 14 15 15 15 15 15 16 16 16 17 16 17 17 16 16 16 16 15 14 12 11 11 11 11 11 11 12 11 12 13 13 14 16 16 16 15 15 15 14
13 14 15 16 16 17 17 17 17 17 17 17 18 18 18 18 18 18 18 18 18 18 17 16 15 14 14 14 13 13 13 13 14 14 15 15 17 18 18 18 17 17 17
17 17 18 18 19 19 20 20 20 20 21 21 21 21 21 22 22 21 21 22 22 22 21 20 18 18 17 16 16 15 15 15 15 16 17 17 18 18 19 19 20 20 19
21 21 22 22 23 23 23 24 25 25 25 24 25 25 25 25 25 26 26 25 25 25 25 24 22 21 20 19 19 19 18 18 19 19 19 20 20 20 20 21 21 22 22
26 26 26 27 27 27 28 29 29 29 29 29 29 29 29 30 30 30 30 29 29 28 27 27 25 25 24 22 22 22 22 22 22 22 23 23 23 23 22 23 23 24 24
33 32 32 32 32 32 33 34 34 34 33 33 33 33 34 34 35 34 33 33 32 31 30 29 29 28 27 26 25 25 25 25 26 26 26 26 26 26 26 25 25 25 26
39 38 37 37 37 38 38 39 39 38 38 37 38 38 38 39 38 38 38 37 35 34 34 33 32 31 31 30 29 29 29 29 29 30 30 30 29 29 29 28 28 27 27
44 44 43 42 42 42 43 44 44 43 42 42 41 42 42 42 42 42 42 41 40 38 37 36 35 35 34 34 33 32 32 32 32 33 34 34 34 33 32 32 31 30 29
46 46 46 46 46 46 46 46 47 46 44 44 43 43 45 46 46 46 46 45 45 42 40 39 38 37 37 36 35 35 34 34 34 35 37 37 37 36 35 34 34 33 32
45 46 46 46 47 48 48 48 49 46 44 45 45 45 46 47 48 48 48 48 46 44 42 42 40 38 37 37 37 37 35 35 37 37 38 39 39 39 37 36 36 36 35
42 43 44 45 46 48 49 49 49 48 46 46 46 46 46 45 47 49 48 48 47 45 43 42 41 39 38 37 38 38 37 37 38 38 39 40 40 40 39 38 37 37 37
41 42 44 45 46 47 48 48 48 46 46 45 47 48 48 47 46 46 47 47 46 42 39 38 37 36 35 36 36 38 39 39 39 38 37 39 39 40 40 39 38 38 38
42 43 44 45 46 47 48 49 49 49 50 49 50 49 49 47 46 46 44 43 41 38 36 35 34 34 34 35 36 37 38 38 39 38 36 36 37 38 38 38 38 37 37
41 43 44 45 47 48 49 51 51 52 53 53 52 50 50 49 48 45 44 40 35 34 33 32 33 33 34 35 36 36 37 37 36 36 35 33 33 35 36 37 37 37 37

GEFSSE_500_meanwind_036.txt.gz
Wind_Speed
8 8 6 4 4 3 4 5 7 7 8 8 9 10 11 11 12 12 12 12 12 11 10 10 10 10 10 10 10 10 11 11 11 10 10 10 9 8 7 5 4 4 4
7 5 3 2 2 3 4 6 8 8 8 8 9 9 10 10 11 12 12 13 12 12 10 9 9 8 8 8 9 9 9 9 9 9 9 9 8 8 7 6 5 4 3
5 4 2 0 2 3 5 6 8 9 9 9 9 9 9 10 10 11 12 12 13 12 12 10 9 8 7 7 8 8 8 8 8 8 8 8 8 7 7 6 6 4 3
4 3 1 1 2 4 5 7 8 9 9 9 9 9 9 9 9 10 11 12 13 13 13 12 10 9 8 7 7 8 8 8 8 7 7 7 8 7 7 7 7 4 3
4 3 2 1 2 4 5 7 8 9 9 10 9 9 8 8 9 9 10 11 12 13 13 12 11 10 9 8 8 8 8 8 8 7 7 6 7 7 7 8 8 5 4
5 4 3 3 3 4 5 6 7 8 9 10 9 9 8 9 9 9 10 10 11 12 12 12 11 11 10 9 9 8 8 8 8 7 7 7 7 7 7 8 9 6 5
7 7 6 6 6 5 6 6 7 8 8 9 9 9 9 9 9 9 10 11 11 11 11 11 11 11 10 10 9 9 9 8 8 7 7 7 7 7 7 7 8 7 6
10 11 10 10 9 8 8 8 8 8 8 9 9 10 10 10 10 11 11 11 11 11 11 11 10 10 10 10 10 10 9 9 9 8 7 7 7 7 7 7 7 7 7
13 14 13 13 12 12 11 10 10 9 9 10 10 11 12 12 13 13 13 13 12 12 12 11 11 10 10 10 11 11 10 10 9 9 8 9 9 8 8 8 8 8 8
14 14 14 14 14 14 13 13 12 11 11 11 12 13 14 14 15 15 15 15 14 14 14 13 12 11 11 11 11 11 11 11 10 10 9 10 10 9 9 9 9 9 9
14 13 14 15 15 15 15 14 14 13 13 13 14 15 15 16 16 16 16 16 16 16 15 15 15 14 13 12 12 12 12 12 12 11 11 11 11 10 10 10 10 10 10
14 13 14 15 15 16 16 16 15 15 16 16 16 17 18 18 17 17 17 18 18 18 18 17 17 17 16 15 14 13 14 13 13 12 12 12 12 12 12 12 12 12 12
14 14 14 15 16 17 17 17 17 17 18 18 19 20 20 20 20 20 20 20 20 20 20 20 19 20 20 19 18 17 17 16 15 14 13 13 13 13 13 13 13 13 13
18 18 18 18 19 20 20 20 20 20 21 22 22 23 23 24 24 24 24 24 24 24 24 23 22 22 23 23 22 22 21 20 19 17 16 16 15 15 15 15 15 15 14
23 23 23 23 23 24 24 24 24 25 25 26 26 27 27 28 28 28 29 29 29 28 28 28 27 26 26 26 26 25 25 24 23 21 20 19 19 17 17 17 17 17 16
28 28 27 27 28 28 28 29 29 29 29 30 30 31 32 33 33 33 34 34 34 33 33 32 31 31 30 29 29 29 28 27 27 26 24 23 22 21 21 20 19 19 19
33 33 32 32 32 32 33 33 34 34 34 34 35 35 35 36 37 38 39 39 39 38 38 37 36 35 34 33 32 32 31 31 31 30 29 27 26 25 24 24 23 22 22
39 38 37 38 37 37 38 38 38 38 38 38 38 39 39 39 41 41 42 42 43 42 42 41 40 39 38 37 36 35 34 34 33 33 32 31 30 29 28 27 26 25 25
43 43 43 43 43 42 43 42 42 41 41 42 42 42 42 43 43 44 44 45 46 45 44 45 44 42 40 40 39 38 37 36 35 35 35 34 33 33 32 30 29 28 28
47 46 46 46 47 46 45 44 44 43 43 43 44 45 45 44 45 45 47 48 49 48 47 45 44 43 43 42 41 39 38 37 36 36 36 36 36 36 35 34 32 30 30
45 45 45 45 45 45 44 43 43 43 43 43 44 45 46 47 47 46 48 49 50 50 48 45 44 44 45 44 42 41 40 39 38 37 37 37 37 37 37 36 34 32 32
41 41 41 42 42 42 42 42 42 42 42 43 44 45 46 47 47 48 48 49 50 49 48 46 45 46 45 43 42 41 41 39 39 38 38 38 38 37 36 36 36 34 33
40 40 40 40 41 42 42 42 42 43 43 43 44 45 46 47 49 49 49 49 49 48 46 45 44 44 44 44 44 43 41 39 38 37 38 38 37 36 35 35 34 33 32
40 40 40 41 41 42 43 43 44 44 44 45 46 48 48 49 50 50 47 48 48 46 45 44 44 43 42 42 41 41 40 38 37 35 36 37 36 35 34 34 33 32 30
38 39 39 40 41 42 43 44 45 46 47 47 48 50 50 51 51 50 48 48 48 47 46 44 44 42 41 39 39 40 40 38 37 35 34 34 35 34 33 33 31 30 28
36 37 38 38 40 41 43 44 46 47 48 49 50 51 52 52 52 52 51 51 49 48 46 44 42 40 39 37 37 38 38 37 37 36 34 33 32 33 32 31 29 28 27

GEFSSE_500_meanwind_042.txt.gz
Wind_Speed
7 8 9 10 11 12 12 13 13 13 13 13 14 14 14 14 15 15 16 17 17 16 15 14 13 12 12 12 12 13 13 12 11 11 11 10 9 9 8 7 6 5 5
6 7 7 8 9 10 11 11 11 11 12 12 12 13 13 13 14 14 15 16 16 16 15 14 13 12 11 11 11 11 11 11 11 11 11 10 9 9 8 8 6 4 4
4 5 6 7 8 8 9 9 10 10 10 11 11 12 12 12 12 13 13 15 15 16 15 14 13 12 11 11 10 10 10 10 10 10 10 9 9 8 8 8 6 4 4
4 5 6 6 7 7 7 8 8 9 9 9 10 10 11 11 12 12 12 13 14 14 15 14 14 13 12 11 10 9 9 9 9 9 9 8 8 8 8 8 7 4 3
4 5 6 6 7 7 7 8 8 8 8 8 8 9 9 10 11 11 12 12 13 13 14 14 13 13 12 11 11 10 9 8 8 8 8 8 8 7 7 7 6 5 2
6 6 7 8 8 9 9 9 9 9 9 8 8 8 9 10 10 11 12 13 13 13 13 13 13 13 12 12 11 10 9 8 7 7 7 8 7 7 7 6 6 5 3
7 8 9 9 10 11 11 11 11 11 10 10 9 9 9 10 11 11 12 13 13 13 13 13 13 13 12 12 12 11 10 9 8 7 7 7 7 7 7 6 6 5 4
9 10 11 11 11 12 13 13 13 13 12 11 11 11 11 11 12 13 14 14 14 14 14 14 14 13 13 13 12 11 10 9 8 8 7 7 8 8 7 7 6 5 5
11 12 12 12 13 13 13 14 14 15 14 14 13 13 13 13 13 14 15 15 14 14 14 15 15 15 14 14 13 12 11 10 10 9 9 8 8 8 8 7 7 7 6
12 13 12 13 13 13 13 14 14 15 15 15 15 15 15 15 15 15 16 15 15 15 16 15 16 16 16 15 15 14 13 12 12 11 11 10 9 9 9 9 9 9 8
11 12 12 12 12 13 13 14 15 15 15 16 16 16 16 16 16 16 16 16 16 17 17 17 17 17 17 17 16 16 16 15 15 14 13 12 11 11 10 10 10 10 11
12 12 12 13 13 13 14 15 15 16 16 17 17 17 17 17 17 17 18 18 18 18 18 19 19 19 19 19 19 19 19 19 19 18 17 15 14 13 12 12 11 12 12
16 16 17 16 16 17 17 17 17 18 18 19 19 19 19 19 19 20 20 20 20 20 20 21 21 21 21 22 22 21 22 22 22 22 21 20 18 16 15 15 14 13 13
19 19 20 21 21 21 22 22 22 21 21 22 22 22 22 23 23 23 23 23 23 23 22 23 23 23 23 24 24 24 25 26 25 25 25 25 23 21 20 18 17 16 15
23 22 23 25 26 26 26 26 26 26 26 26 25 26 26 26 27 26 26 26 26 26 26 26 26 26 26 26 27 27 27 28 28 29 29 28 27 26 24 22 20 19 18
28 28 27 29 30 31 30 30 30 30 30 30 30 30 30 30 30 30 30 30 29 29 29 29 28 28 29 29 29 30 30 30 30 31 31 31 30 29 27 26 24 23 22
32 32 33 33 34 35 35 35 35 34 34 33 32 32 32 32 33 33 33 33 33 32 32 31 31 31 31 31 31 31 32 31 31 32 33 33 32 31 30 29 27 26 25
35 35 36 36 36 38 39 40 39 38 36 36 35 34 34 34 34 35 35 35 35 35 34 33 33 33 33 33 33 33 33 33 33 33 34 34 33 33 34 32 31 30 29
35 35 36 37 37 38 38 38 37 37 37 37 37 36 36 35 35 35 36 37 36 36 35 35 35 35 35 35 34 34 34 34 34 33 34 34 35 35 34 34 33 32 31
34 34 35 35 36 36 37 37 37 37 37 38 38 38 37 37 36 37 37 37 37 37 37 37 37 37 36 35 35 34 34 34 34 34 34 34 35 35 34 34 34 33 33
35 35 36 35 37 37 35 35 35 36 37 38 38 39 38 38 38 39 38 38 38 38 38 37 37 37 37 36 36 35 34 34 34 35 35 34 34 34 34 34 35 34 34
36 37 39 39 38 38 39 37 37 37 37 38 39 39 39 39 40 40 40 40 40 40 40 37 36 36 37 37 37 35 33 33 34 35 35 34 34 33 32 33 33 33 32
35 37 40 39 39 38 38 38 38 38 38 38 38 39 39 40 41 41 41 41 41 41 41 40 39 38 37 38 37 35 34 33 34 34 34 33 33 33 32 32 31 30 31
34 35 37 37 37 38 38 39 39 39 38 38 39 39 40 41 41 41 41 42 41 41 41 40 40 39 39 38 37 36 35 35 34 32 32 33 33 33 32 31 30 30 30
32 34 35 36 37 37 37 38 38 38 38 38 38 39 39 40 40 41 42 42 42 42 41 41 41 41 40 39 39 38 37 36 34 32 31 32 32 32 31 31 31 30 30
33 34 35 37 38 38 39 39 39 39 38 38 38 38 39 39 40 41 42 42 42 43 43 43 43 43 43 42 42 41 39 38 36 34 32 31 31 32 31 31 30 29 28